Flag for U.S.A. Weather past 2 weeks in Ocala, Florida, U.S.A.

72 °F

Passing clouds.

Feels Like: 69 °F
Forecast: 70 / 83 °F
Wind: 5 mph from North

Location: Ocala Municipal

Current Time: Oct 10, 2015 at 8:58:58 AM

Latest Report: Oct 10, 2015 at 7:50 AM

Visibility: 10 mi

Pressure: 29.98 "Hg

Humidity: 88%

Dew point: 68 °F

Location of OcalaLocation

Historic Weather in Ocala — Graph


Ocala temperature yesterday

Maximum temperature yesterday: 86 °F (at 2:50 PM)
Minimum temperature yesterday: 66 °F (at 4:55 AM)
Average temperature yesterday: 74 °F

Past Weeks' High & Low Weather Summary

High91 °F (Sep 30, 3:50 PM)94% (Sep 25, 11:35 PM)30.10 "Hg (Sep 25, 11:35 PM)
Low59 °F (Oct 4, 3:35 AM)46% (Sep 30, 4:50 PM)29.56 "Hg (Oct 2, 3:50 PM)
Average73 °F83%29.86 "Hg
* Reported Sep 25 7:50 AM — Oct 10 7:50 AM, Ocala, Weather by CustomWeather, © 2015

Note: Actual official high and low records may vary slightly from our data, if they occured in-between our weather recording intervals... More about our weather records


Ocala weather history for previous 24 hours

Time TempWeatherWind HumidityBarometerVisibility
7:50 AM
Sat, Oct 10
72 °FPassing clouds.5 mph88%29.98 "Hg10 mi
6:50 AM70 °FPassing clouds.No wind94%29.97 "Hg10 mi
6:35 AM70 °FClear.3 mph94%29.97 "Hg10 mi
6:15 AM70 °FClear.3 mph88%29.96 "Hg10 mi
5:55 AM70 °FClear.3 mph88%29.96 "Hg10 mi
5:35 AM70 °FClear.No wind88%29.96 "Hg9 mi
5:15 AM70 °FClear.No wind88%29.96 "Hg10 mi
4:55 AM72 °FClear.No wind88%29.96 "Hg10 mi
4:35 AM72 °FClear.3 mph88%29.97 "Hg10 mi
4:15 AM72 °FClear.No wind88%29.97 "Hg10 mi
3:55 AM72 °FClear.3 mph88%29.98 "Hg10 mi
3:35 AM72 °FClear.3 mph88%29.99 "Hg10 mi
3:15 AM72 °FClear.No wind88%29.99 "Hg10 mi
2:55 AM72 °FPassing clouds.No wind88%29.99 "Hg10 mi
2:35 AM72 °FPassing clouds.No wind88%30.00 "Hg10 mi
2:15 AM73 °FPassing clouds.No wind83%30.01 "Hg10 mi
1:55 AM72 °FClear.No wind88%30.01 "Hg10 mi
1:35 AM72 °FClear.No wind88%30.01 "Hg10 mi
1:15 AM72 °FClear.No wind88%30.02 "Hg10 mi
12:55 AM72 °FClear.No wind88%30.02 "Hg10 mi
12:35 AM72 °FClear.No wind88%30.02 "Hg10 mi
12:15 AM72 °FClear.No wind88%30.03 "Hg10 mi
11:55 PM
Fri, Oct 9
73 °FClear.No wind83%30.03 "Hg10 mi
11:35 PM73 °FClear.No wind83%30.02 "Hg10 mi
11:15 PM73 °FClear.No wind83%30.02 "Hg10 mi
10:55 PM73 °FClear.No wind83%30.02 "Hg10 mi
10:35 PM73 °FClear.No wind83%30.03 "Hg10 mi
10:15 PM75 °FClear.No wind78%30.02 "Hg10 mi
9:55 PM75 °FClear.No wind78%30.02 "Hg10 mi
9:35 PM75 °FClear.3 mph78%30.02 "Hg10 mi
9:15 PM75 °FClear.No wind74%30.01 "Hg10 mi
8:55 PM75 °FClear.No wind74%30.01 "Hg10 mi
8:35 PM77 °FClear.3 mph69%30.01 "Hg10 mi
8:15 PM77 °FClear.3 mph69%30.01 "Hg10 mi
7:55 PM79 °FSunny.3 mph65%30.01 "Hg10 mi
6:50 PM81 °FSunny.6 mph66%29.99 "Hg10 mi
5:50 PM82 °FPassing clouds.5 mph66%29.99 "Hg10 mi
4:50 PM86 °FScattered clouds.5 mph52%30.00 "Hg10 mi
3:50 PM86 °FScattered clouds.5 mph52%30.00 "Hg10 mi
2:50 PM86 °FScattered clouds.5 mph52%30.01 "Hg10 mi
1:50 PM84 °FBroken clouds.6 mph55%30.04 "Hg10 mi
12:50 PM84 °FBroken clouds.6 mph55%30.07 "Hg10 mi
11:50 AM82 °FScattered clouds.5 mph66%30.09 "Hg10 mi
10:50 AM82 °FScattered clouds.6 mph66%30.09 "Hg10 mi
9:50 AM79 °FSunny.5 mph74%30.10 "Hg10 mi
8:50 AM73 °FPassing clouds.No wind83%30.09 "Hg10 mi
Weather by CustomWeather, © 2015

See weather overviewHow to use our weather pages